| time (UTC) | temp F | wind direction | speed knots | gust knots | rain 1hr in | rain 24hr in | rain mn in | humidity % | barometer mb |
| 20260503213100 | 85 | 42 | 0.9 | 2.6 | 0.00 | 0.00 | 0.00 | 34 | 1013.6 |
| 20260503211605 | 83 | 0 | 0.0 | 3.5 | 0.00 | 0.00 | 0.00 | 38 | 1013.9 |
| 20260503210059 | 84 | 0 | 0.9 | 3.5 | 0.00 | 0.00 | 0.00 | 35 | 1014.0 |
| 20260503204601 | 83 | 57 | 0.9 | 3.5 | 0.00 | 0.00 | 0.00 | 39 | 1014.0 |
| 20260503203101 | 84 | 0 | 0.9 | 3.5 | 0.00 | 0.00 | 0.00 | 31 | 1014.3 |
| 20260503201602 | 83 | 76 | 0.9 | 4.3 | 0.00 | 0.00 | 0.00 | 36 | 1014.4 |
| 20260503200101 | 83 | 44 | 0.9 | 4.3 | 0.00 | 0.00 | 0.00 | 35 | 1014.5 |
| 20260503194601 | 81 | 91 | 0.9 | 2.6 | 0.00 | 0.00 | 0.00 | 39 | 1014.6 |
| 20260503193100 | 81 | 65 | 1.7 | 3.5 | 0.00 | 0.00 | 0.00 | 40 | 1014.7 |
| 20260503191600 | 81 | 40 | 0.9 | 3.5 | 0.00 | 0.00 | 0.00 | 41 | 1015.0 |
| 20260503184608 | 80 | 41 | 0.9 | 2.6 | 0.00 | 0.00 | 0.00 | 40 | 1015.2 |
| 20260503183103 | 79 | 0 | 0.9 | 3.5 | 0.00 | 0.00 | 0.00 | 46 | 1015.5 |
| 20260503181603 | 79 | 46 | 0.9 | 3.5 | 0.00 | 0.00 | 0.00 | 50 | 1015.5 |
| 20260503180058 | 77 | 57 | 0.0 | 3.5 | 0.00 | 0.00 | 0.00 | 49 | 1015.5 |
| 20260503174617 | 77 | 0 | 0.0 | 3.5 | 0.00 | 0.00 | 0.00 | 49 | 1015.6 |
| 20260503173107 | 75 | 68 | 0.9 | 3.5 | 0.00 | 0.00 | 0.00 | 55 | 1015.6 |
| 20260503171603 | 75 | 0 | 0.0 | 3.5 | 0.00 | 0.00 | 0.00 | 56 | 1015.6 |
| 20260503160118 | 65 | 0 | 0.0 | 1.7 | 0.00 | 0.00 | 0.00 | 80 | 1015.8 |
| 20260503150104 | 62 | 0 | 0.0 | 0.0 | 0.00 | 0.00 | 0.00 | 80 | 1015.9 |
| 20260503140106 | 60 | 0 | 0.0 | 0.0 | 0.00 | 0.00 | 0.00 | 83 | 1015.5 |
| 20260503100123 | 61 | 0 | 0.0 | 0.0 | 0.00 | 0.00 | 0.00 | 81 | 1015.9 |
| 20260503081606 | 60 | 0 | 0.0 | 0.0 | 0.00 | 0.00 | 0.00 | 85 | 1016.3 |
| 20260503071559 | 59 | 285 | 0.9 | 2.6 | 0.00 | 0.00 | 0.00 | 90 | 1016.5 |
| 20260503054558 | 62 | 142 | 0.0 | 4.3 | 0.00 | 0.00 | 0.00 | 83 | 1016.5 |
| 20260503053058 | 63 | 148 | 0.0 | 1.7 | 0.00 | 0.00 | 0.00 | 83 | 1016.2 |
| 20260503051558 | 62 | 238 | 0.9 | 3.5 | 0.00 | 0.00 | 0.00 | 84 | 1016.1 |
| 20260503044634 | 61 | 288 | 2.6 | 3.5 | 0.00 | 0.00 | 0.00 | 87 | 1016.2 |
| 20260503043106 | 61 | 0 | 0.0 | 0.0 | 0.00 | 0.00 | 0.00 | 87 | 1016.5 |
| 20260503041557 | 61 | 0 | 0.0 | 0.0 | 0.00 | 0.00 | 0.00 | 88 | 1016.3 |
| 20260503034612 | 60 | 288 | 2.6 | 5.2 | 0.00 | 0.00 | 0.00 | 88 | 1016.1 |
| 20260503033059 | 60 | 281 | 0.9 | 2.6 | 0.00 | 0.00 | 0.00 | 88 | 1016.1 |
| 20260503031557 | 61 | 289 | 0.0 | 3.5 | 0.00 | 0.00 | 0.00 | 87 | 1016.4 |
| 20260503030100 | 61 | 0 | 0.0 | 2.6 | 0.00 | 0.00 | 0.00 | 87 | 1016.6 |
| 20260503024559 | 62 | 0 | 0.0 | 4.3 | 0.00 | 0.00 | 0.00 | 85 | 1016.7 |
| 20260503023059 | 62 | 144 | 0.9 | 5.2 | 0.00 | 0.00 | 0.00 | 85 | 1016.8 |
| 20260503021558 | 63 | 121 | 1.7 | 6.1 | 0.00 | 0.00 | 0.00 | 84 | 1016.7 |
| 20260503020058 | 64 | 117 | 0.9 | 1.7 | 0.00 | 0.00 | 0.00 | 87 | 1016.1 |
| 20260503014610 | 65 | 0 | 0.0 | 0.0 | 0.00 | 0.00 | 0.00 | 82 | 1015.7 |
| 20260503013057 | 65 | 0 | 0.0 | 2.6 | 0.00 | 0.00 | 0.00 | 81 | 1015.7 |
| 20260503011601 | 65 | 162 | 0.0 | 5.2 | 0.00 | 0.00 | 0.00 | 82 | 1015.7 |
| 20260503010059 | 65 | 0 | 0.0 | 0.0 | 0.00 | 0.00 | 0.00 | 84 | 1015.4 |
| 20260503004559 | 65 | 0 | 0.0 | 0.0 | 0.00 | 0.00 | 0.00 | 82 | 1015.6 |
| 20260503003105 | 65 | 0 | 0.0 | 0.0 | 0.00 | 0.00 | 0.00 | 83 | 1015.3 |
| 20260503001612 | 66 | 0 | 0.0 | 0.0 | 0.00 | 0.00 | 0.00 | 75 | 1015.5 |
| 20260502234559 | 65 | 0 | 0.0 | 0.0 | 0.00 | 0.00 | 0.00 | 81 | 1015.7 |
| 20260502231607 | 65 | 0 | 0.0 | 0.9 | 0.00 | 0.00 | 0.00 | 78 | 1016.1 |
| 20260502230059 | 65 | 0 | 0.0 | 0.0 | 0.00 | 0.00 | 0.00 | 80 | 1016.3 |
| 20260502224602 | 65 | 0 | 0.0 | 1.7 | 0.00 | 0.00 | 0.00 | 79 | 1016.3 |
| 20260502223057 | 65 | 154 | 0.9 | 3.5 | 0.00 | 0.00 | 0.00 | 74 | 1016.6 |
| 20260502221600 | 64 | 0 | 0.0 | 3.5 | 0.00 | 0.00 | 0.00 | 78 | 1016.7 |
| 20260502220058 | 64 | 0 | 0.0 | 4.3 | 0.00 | 0.00 | 0.00 | 77 | 1017.1 |
| 20260502214605 | 64 | 0 | 0.0 | 2.6 | 0.00 | 0.00 | 0.00 | 78 | 1017.3 |